EW9798 Weather Reports


Display with metric or nautical units.
time (UTC)temp
F
wind
direction
speed
MPH
gust
MPH
rain 1hr
in
rain 24hr
in
rain mn
in
humidity
%
barometer
mb
20200329154527 44 190 5.0 0.0 0.03 0.06 0.00 88 1.0
20200329153027 44 189 4.0 0.0 0.02 0.04 0.00 88 1.0
20200329151528 44 215 3.0 0.0 0.02 0.04 0.00 92 1.0
20200329150029 43 174 2.0 0.0 0.01 0.03 0.00 94 1.0
20200329144525 43 139 3.0 0.0 0.02 0.03 0.00 95 1.0
20200329143027 42 145 3.0 0.0 0.02 0.02 0.00 96 1.0
20200329141527 41 117 1.0 0.0 0.02 0.02 0.00 96 1.0
20200329140027 41 190 0.0 0.0 0.02 0.02 0.00 96 1.0
20200329134526 41 204 0.0 0.0 0.01 0.01 0.00 95 1.0
20200329133025 40 202 1.0 0.0 0.00 0.00 0.00 95 1.0
20200329131524 40 198 0.0 0.0 0.00 0.00 0.00 95 1.0
20200329130025 40 170 0.0 0.0 0.00 0.00 0.00 95 1.0
20200329124526 39 177 2.0 0.0 0.00 0.00 0.00 94 1.0
20200329123023 39 312 0.0 0.0 0.00 0.00 0.00 94 1.0
20200329121527 40 200 0.0 0.0 0.00 0.00 0.00 94 1.0
20200329120027 40 212 1.0 0.0 0.00 0.00 0.00 94 1.0
20200329114528 40 149 2.0 0.0 0.00 0.00 0.00 94 1.0
20200329113024 39 139 1.0 0.0 0.00 0.00 0.00 94 1.0
20200329111525 39 67 1.0 0.0 0.00 0.00 0.00 92 1.0
20200329110024 39 136 0.0 0.0 0.00 0.00 0.00 92 1.0
20200329104525 40 201 2.0 0.0 0.00 0.00 0.00 92 1.0
20200329103027 40 132 5.0 0.0 0.00 0.00 0.00 92 1.0
20200329101616 39 121 4.0 0.0 0.00 0.00 0.00 92 1.0
20200329100027 40 169 1.0 0.0 0.00 0.00 0.00 92 1.0
20200329094526 40 143 1.0 0.0 0.00 0.00 0.00 92 1.0
20200329093026 41 138 3.0 0.0 0.00 0.00 0.00 92 1.0
20200329091527 41 148 1.0 0.0 0.00 0.00 0.00 92 1.0
20200329090024 40 122 4.0 0.0 0.00 0.00 0.00 91 1.0
20200329084525 40 151 1.0 0.0 0.00 0.00 0.00 90 1.0
20200329083027 41 171 0.0 0.0 0.00 0.00 0.00 90 1.0
20200329081525 41 127 2.0 0.0 0.00 0.00 0.00 90 1.0
20200329080025 42 140 3.0 0.0 0.00 0.00 0.00 90 1.0
20200329074526 42 135 1.0 0.0 0.00 0.00 0.00 90 1.0
20200329073025 42 171 0.0 0.0 0.00 0.00 0.00 89 1.0
20200329071525 43 178 0.0 0.0 0.00 0.00 0.00 87 1.0
20200329070027 43 157 0.0 0.0 0.00 0.00 0.00 87 1.0
20200329064526 44 170 1.0 0.0 0.00 0.00 0.00 87 1.0
20200329063033 44 12 0.0 0.0 0.00 0.00 0.00 87 1.0
20200329061531 44 114 2.0 0.0 0.00 0.00 0.00 87 1.0
20200329060026 44 138 2.0 0.0 0.00 0.00 0.00 86 1.0
20200329054526 44 242 0.0 0.0 0.00 0.00 0.00 86 1.0
20200329053027 45 260 1.0 0.0 0.00 0.00 0.00 85 1.0
20200329051527 45 161 1.0 0.0 0.00 0.00 0.00 84 1.0
20200329050023 45 188 1.0 0.0 0.00 0.00 0.00 83 1.0
20200329044525 45 118 2.0 0.0 0.00 0.00 0.00 83 1.0
20200329043028 46 152 1.0 0.0 0.00 0.00 0.00 81 1.0
20200329041528 47 180 0.0 0.0 0.00 0.00 0.00 80 1.0
20200329040028 48 205 0.0 0.0 0.00 0.00 0.00 79 1.0
20200329034532 49 319 3.0 0.0 0.00 0.00 0.00 77 1.0
20200329033024 49 297 2.0 0.0 0.00 0.00 0.00 76 1.0
20200329031526 48 44 2.0 0.0 0.00 0.00 0.00 79 1.0
20200329030028 49 68 2.0 0.0 0.00 0.00 0.00 79 1.0
20200329024525 49 64 3.0 0.0 0.00 0.00 0.00 79 1.0
20200329023028 49 55 3.0 0.0 0.00 0.00 0.00 78 1.0
20200329021524 50 11 3.0 0.0 0.00 0.00 0.00 77 1.0
20200329020029 50 16 3.0 0.0 0.00 0.00 0.00 77 1.0
20200329014526 50 18 2.0 0.0 0.00 0.00 0.00 77 1.0
20200329013028 50 343 3.0 0.0 0.00 0.00 0.00 77 1.0
20200329011529 50 41 2.0 0.0 0.00 0.00 0.00 76 1.0
20200329010024 50 9 3.0 0.0 0.00 0.00 0.00 76 1.0
20200329004528 51 339 3.0 0.0 0.00 0.00 0.00 76 1.0
20200329003026 51 358 3.0 0.0 0.00 0.00 0.00 75 1.0
20200329001530 51 359 4.0 0.0 0.00 0.00 0.00 75 1.0
20200329000110 51 341 4.0 0.0 0.00 0.00 0.00 75 1.0
20200328234526 51 350 4.0 0.0 0.00 0.00 0.00 74 1.0
20200328233029 51 345 4.0 0.0 0.00 0.00 0.00 73 1.0
20200328231529 52 351 5.0 0.0 0.00 0.00 0.00 72 1.0
20200328230028 52 346 5.0 0.0 0.00 0.00 0.00 71 1.0
20200328224526 53 13 5.0 0.0 0.00 0.00 0.00 70 1.0
20200328223026 53 43 5.0 0.0 0.00 0.00 0.00 69 1.0
20200328221528 53 33 6.0 0.0 0.00 0.00 0.00 68 1.0
20200328220026 53 16 6.0 0.0 0.00 0.00 0.00 66 1.0
20200328214525 54 350 6.0 0.0 0.00 0.00 0.00 66 1.0
20200328213025 54 11 6.0 0.0 0.00 0.00 0.00 66 1.0
20200328211527 54 1 6.0 0.0 0.00 0.00 0.00 67 1.0
20200328210028 53 5 6.0 0.0 0.00 0.00 0.00 67 1.0
20200328204527 53 10 5.0 0.0 0.00 0.00 0.00 67 1.0
20200328203027 52 19 6.0 0.0 0.00 0.00 0.00 67 1.0
20200328201527 52 356 6.0 0.0 0.00 0.00 0.00 67 1.0
20200328200029 52 347 6.0 0.0 0.00 0.00 0.00 67 1.0
20200328194526 52 344 5.0 0.0 0.00 0.00 0.00 67 1.0
20200328193026 53 358 6.0 0.0 0.00 0.00 0.00 67 1.0
20200328191528 52 11 4.0 0.0 0.00 0.00 0.00 69 1.0
20200328190025 51 340 5.0 0.0 0.00 0.00 0.00 70 1.0
20200328184526 50 350 4.0 0.0 0.00 0.00 0.00 70 1.0
20200328183027 51 341 4.0 0.0 0.00 0.00 0.00 71 1.0
20200328181527 50 355 3.0 0.0 0.00 0.00 0.00 73 1.0
20200328180026 50 335 4.0 0.0 0.00 0.00 0.00 75 1.0
20200328174528 49 358 3.0 0.0 0.00 0.00 0.00 77 1.0
20200328173026 49 346 4.0 0.0 0.00 0.00 0.00 78 1.0
20200328171528 49 333 4.0 0.0 0.00 0.00 0.00 79 1.0
20200328170027 48 320 4.0 0.0 0.00 0.00 0.00 81 1.0
20200328163028 46 359 3.0 0.0 0.00 0.00 0.00 85 1.0
20200328161527 46 340 2.0 0.0 0.00 0.00 0.00 86 1.0
20200328160030 45 10 2.0 0.0 0.00 0.00 0.00 88 1.0